Home   Weather   Stillwater   Past weeks
Flag for USA

Past Weather in Stillwater, Minnesota, USA — Yesterday and Last 2 Weeks

Now
78 °F

Partly sunny.


Feels Like: 79 °F
Forecast: 76 / 54 °F
Wind: 12 mph from North

Location: St. Paul Downtown Holman Field

Current Time: Jul 22, 2019 at 3:36:53 pm

Latest Report: Jul 22, 2019 at 2:53 pm


Visibility: 10 mi

Pressure: 30.19 "Hg

Humidity: 39%

Dew Point: 51 °F

Location of StillwaterLocation

Past Weather in Stillwater — Graph

°F

Stillwater Temperature Yesterday

Maximum temperature yesterday: 78 °F (at 11:53 am)
Minimum temperature yesterday: 58 °F (at 5:53 am)
Average temperature yesterday: 70 °F

High & Low Weather Summary for the Past Weeks

 TemperatureHumidityPressure
High92 °F (Jul 19, 4:53 pm)97% (Jul 17, 2:53 am)30.22 "Hg (Jul 17, 2:53 am)
Low58 °F (Jul 21, 5:53 am)34% (Jul 11, 1:53 pm)29.53 "Hg (Jul 19, 4:53 pm)
Average75 °F74%29.89 "Hg
* Reported Jul 7 1:53 pm — Jul 22 1:53 pm, Stillwater. Weather by CustomWeather, © 2019

Note: Actual official high and low records may vary slightly from our data, if they occured in-between our weather recording intervals... More about our weather records

Advertising

Stillwater Weather History for the Previous 24 Hours

Scroll right to see more
 ConditionsComfort  
Time TempWeatherWind HumidityBarometerVisibility
1:53 pm
Mon, Jul 22
76 °FPartly sunny.10 mph42%30.21 "Hg10 mi
12:53 pm74 °FScattered clouds.13 mph46%30.22 "Hg10 mi
11:53 am74 °FSunny.8 mph46%30.22 "Hg10 mi
10:53 am72 °FSunny.9 mph46%30.22 "Hg10 mi
9:53 am70 °FSunny.10 mph53%30.22 "Hg10 mi
8:53 am67 °FSunny.9 mph57%30.22 "Hg10 mi
7:53 am63 °FSunny.8 mph65%30.22 "Hg10 mi
6:53 am60 °FSunny.7 mph72%30.20 "Hg10 mi
5:53 am59 °FSunny.10 mph72%30.18 "Hg10 mi
4:53 am61 °FClear.12 mph70%30.16 "Hg10 mi
3:53 am61 °FClear.8 mph72%30.15 "Hg10 mi
2:53 am63 °FClear.8 mph68%30.14 "Hg10 mi
1:53 am65 °FClear.10 mph68%30.13 "Hg10 mi
12:53 am67 °FClear.10 mph66%30.12 "Hg10 mi
11:53 pm
Sun, Jul 21
68 °FPassing clouds.9 mph68%30.11 "Hg10 mi
10:53 pm69 °FPassing clouds.8 mph68%30.10 "Hg10 mi
9:53 pm72 °FOvercast.8 mph61%30.09 "Hg10 mi
8:53 pm72 °FPassing clouds.9 mph59%30.09 "Hg10 mi
7:53 pm75 °FBroken clouds.14 mph54%30.07 "Hg10 mi
6:53 pm75 °FSunny.9 mph52%30.06 "Hg10 mi
5:53 pm76 °FSunny.10 mph50%30.05 "Hg10 mi
4:53 pm78 °FPassing clouds.13 mph48%30.04 "Hg10 mi
3:53 pm77 °FPartly sunny.12 mph52%30.05 "Hg10 mi
Weather by CustomWeather, © 2019

See weather overview